User: anonymous   Login
Location: Unspecified
(0.0000°N, 0.0000°E)
Time: 18:54:31
(UTC+00:00)
Language:

GOMX4-A - Orbit

View from above orbital plane
View from above orbital plane
View from above satellite
View from above satellite

Ground track
Ground track

The orbit data is extracted from the following two-line orbital elements,

1 43197U 18015F   19341.44998193  .00000641  00000-0  29101-4 0  9992
2 43197  97.4133 106.8715 0020616  66.2747   6.6069 15.24218962102514
Epoch (UTC): 07 December 2019 10:47:58
Eccentricity: 0.0020616
inclination: 97.4133°
perigee height: 479 km
apogee height: 507 km
right ascension of ascending node: 106.8715°
argument of perigee: 66.2747°
revolutions per day: 15.24218962
mean anomaly at epoch: 6.6069°
orbit number at epoch: 10251

The dashed part of the orbit path shows where the satellite is in the earth's shadow,  

DLR